Wetterdaten: Dienstag, 27.10.2015
Datum Zeit Auen-Temp. Temp gefhlt Luftfeuchte Luftdruck Regen Wind Richtung Richtung Taupunkt Windben
27.10.2015 00:00 1,7 C 1,4 C 93 % 1017,1 hPa 0,0 mm 0,0 km/h (0 Bft) SO 135 0,7 C 0,0 km/h (0 Bft)
27.10.2015 00:05 1,7 C 1,4 C 93 % 1017,1 hPa 0,0 mm 0,0 km/h (0 Bft) SO 135 0,7 C 0,0 km/h (0 Bft)
27.10.2015 00:10 1,7 C 1,4 C 93 % 1017,2 hPa 0,0 mm 0,0 km/h (0 Bft) SO 135 0,7 C 0,0 km/h (0 Bft)
27.10.2015 00:15 1,9 C 1,6 C 94 % 1017,2 hPa 0,0 mm 0,0 km/h (0 Bft) SO 135 1,0 C 0,0 km/h (0 Bft)
27.10.2015 00:20 1,8 C 1,5 C 94 % 1017,2 hPa 0,0 mm 0,0 km/h (0 Bft) SO 135 0,9 C 0,0 km/h (0 Bft)
27.10.2015 00:25 1,6 C 1,4 C 94 % 1017,2 hPa 0,0 mm 0,0 km/h (0 Bft) SO 135 0,7 C 0,0 km/h (0 Bft)
27.10.2015 00:30 1,5 C 1,3 C 94 % 1017,1 hPa 0,0 mm 0,0 km/h (0 Bft) SO 135 0,6 C 0,0 km/h (0 Bft)
27.10.2015 00:35 1,9 C 1,5 C 94 % 1017,1 hPa 0,0 mm 0,0 km/h (0 Bft) W-SW 247 1,0 C 0,0 km/h (0 Bft)
27.10.2015 00:40 1,6 C 1,3 C 94 % 1017,1 hPa 0,0 mm 0,0 km/h (0 Bft) W-SW 247 0,7 C 0,0 km/h (0 Bft)
27.10.2015 00:45 1,3 C 1,1 C 94 % 1017,1 hPa 0,0 mm 0,0 km/h (0 Bft) W-SW 247 0,4 C 0,0 km/h (0 Bft)
27.10.2015 00:50 1,0 C 0,8 C 93 % 1017,1 hPa 0,0 mm 0,0 km/h (0 Bft) W-SW 247 -0,0 C 0,0 km/h (0 Bft)
27.10.2015 00:55 0,9 C 0,8 C 94 % 1017,1 hPa 0,0 mm 0,0 km/h (0 Bft) SW 225 0,0 C 0,0 km/h (0 Bft)
27.10.2015 01:00 1,1 C 0,9 C 94 % 1017,1 hPa 0,0 mm 0,0 km/h (0 Bft) SW 225 0,2 C 0,0 km/h (0 Bft)
27.10.2015 01:05 1,3 C 1,0 C 94 % 1017,1 hPa 0,0 mm 0,0 km/h (0 Bft) W-SW 247 0,4 C 0,0 km/h (0 Bft)
27.10.2015 01:10 1,2 C 0,9 C 94 % 1017,0 hPa 0,0 mm 0,0 km/h (0 Bft) W-SW 247 0,3 C 0,0 km/h (0 Bft)
27.10.2015 01:15 1,1 C 0,9 C 94 % 1017,0 hPa 0,0 mm 0,0 km/h (0 Bft) SW 225 0,2 C 0,0 km/h (0 Bft)
27.10.2015 01:20 1,2 C 0,9 C 94 % 1017,0 hPa 0,0 mm 0,0 km/h (0 Bft) W-SW 247 0,3 C 0,0 km/h (0 Bft)
27.10.2015 01:25 1,5 C 1,1 C 94 % 1017,0 hPa 0,0 mm 0,0 km/h (0 Bft) SW 225 0,6 C 0,0 km/h (0 Bft)
27.10.2015 01:30 1,4 C 1,1 C 94 % 1017,0 hPa 0,0 mm 0,0 km/h (0 Bft) SW 225 0,5 C 0,0 km/h (0 Bft)
27.10.2015 01:34 1,4 C 1,1 C 94 % 1017,0 hPa 0,0 mm 0,0 km/h (0 Bft) SW 225 0,5 C 0,0 km/h (0 Bft)
27.10.2015 01:36 1,4 C 1,1 C 94 % 1017,0 hPa 0,0 mm 0,0 km/h (0 Bft) SW 225 0,5 C 0,0 km/h (0 Bft)
27.10.2015 01:40 1,2 C 0,9 C 94 % 1017,0 hPa 0,0 mm 0,0 km/h (0 Bft) SW 225 0,3 C 0,0 km/h (0 Bft)
27.10.2015 01:45 1,0 C 0,8 C 94 % 1017,0 hPa 0,0 mm 0,0 km/h (0 Bft) SW 225 0,1 C 0,0 km/h (0 Bft)
27.10.2015 01:50 0,9 C 0,7 C 94 % 1017,0 hPa 0,0 mm 0,0 km/h (0 Bft) SW 225 0,0 C 0,0 km/h (0 Bft)
27.10.2015 01:55 0,8 C 0,6 C 94 % 1017,0 hPa 0,0 mm 0,0 km/h (0 Bft) SW 225 -0,1 C 0,0 km/h (0 Bft)
27.10.2015 02:00 0,8 C 0,7 C 94 % 1017,0 hPa 0,0 mm 0,0 km/h (0 Bft) SW 225 -0,1 C 0,0 km/h (0 Bft)
27.10.2015 02:05 0,7 C 0,6 C 94 % 1017,0 hPa 0,0 mm 0,0 km/h (0 Bft) SW 225 -0,2 C 0,0 km/h (0 Bft)
27.10.2015 02:10 0,7 C 0,5 C 94 % 1017,0 hPa 0,0 mm 0,0 km/h (0 Bft) W-SW 247 -0,2 C 0,0 km/h (0 Bft)
27.10.2015 02:15 0,8 C 0,6 C 94 % 1017,0 hPa 0,0 mm 0,0 km/h (0 Bft) W-SW 247 -0,1 C 0,0 km/h (0 Bft)
27.10.2015 02:20 0,7 C 0,5 C 94 % 1017,0 hPa 0,0 mm 0,0 km/h (0 Bft) W-SW 247 -0,2 C 0,0 km/h (0 Bft)
27.10.2015 02:25 1,0 C 0,6 C 94 % 1017,0 hPa 0,0 mm 0,0 km/h (0 Bft) W-SW 247 0,1 C 0,0 km/h (0 Bft)
27.10.2015 02:30 0,6 C 0,4 C 94 % 1016,8 hPa 0,0 mm 0,0 km/h (0 Bft) W-SW 247 -0,3 C 0,0 km/h (0 Bft)
27.10.2015 02:35 0,4 C 0,3 C 94 % 1016,8 hPa 0,0 mm 0,0 km/h (0 Bft) W-SW 247 -0,5 C 0,0 km/h (0 Bft)
27.10.2015 02:40 0,4 C 0,3 C 94 % 1016,8 hPa 0,0 mm 0,0 km/h (0 Bft) W-SW 247 -0,5 C 0,0 km/h (0 Bft)
27.10.2015 02:45 0,6 C 0,4 C 94 % 1016,8 hPa 0,0 mm 0,0 km/h (0 Bft) W-SW 247 -0,3 C 0,0 km/h (0 Bft)
27.10.2015 02:50 0,5 C 0,4 C 94 % 1016,8 hPa 0,0 mm 0,0 km/h (0 Bft) W-SW 247 -0,4 C 0,0 km/h (0 Bft)
27.10.2015 02:55 0,5 C 0,3 C 94 % 1016,8 hPa 0,0 mm 0,0 km/h (0 Bft) W-SW 247 -0,4 C 0,0 km/h (0 Bft)
27.10.2015 03:00 0,4 C 0,3 C 94 % 1016,8 hPa 0,0 mm 0,0 km/h (0 Bft) W-SW 247 -0,5 C 0,0 km/h (0 Bft)
27.10.2015 03:05 0,8 C 0,5 C 95 % 1016,8 hPa 0,0 mm 0,0 km/h (0 Bft) W-SW 247 0,1 C 0,0 km/h (0 Bft)
27.10.2015 03:10 0,6 C 0,4 C 95 % 1016,6 hPa 0,0 mm 0,0 km/h (0 Bft) W-SW 247 -0,1 C 0,0 km/h (0 Bft)
27.10.2015 03:15 0,5 C 0,4 C 95 % 1016,6 hPa 0,0 mm 0,0 km/h (0 Bft) W-SW 247 -0,2 C 0,0 km/h (0 Bft)
27.10.2015 03:20 0,4 C 0,3 C 95 % 1016,6 hPa 0,0 mm 0,0 km/h (0 Bft) W-SW 247 -0,3 C 0,0 km/h (0 Bft)
27.10.2015 03:25 0,9 C 0,6 C 95 % 1016,6 hPa 0,0 mm 0,0 km/h (0 Bft) S 180 0,2 C 0,0 km/h (0 Bft)
27.10.2015 03:30 1,0 C 0,8 C 95 % 1016,4 hPa 0,0 mm 0,3 km/h (0 Bft) S 180 0,3 C 3,9 km/h (1 Bft)
27.10.2015 03:35 0,9 C 0,8 C 95 % 1016,4 hPa 0,0 mm 0,3 km/h (0 Bft) W-SW 247 0,2 C 0,0 km/h (0 Bft)
27.10.2015 03:40 0,8 C 0,7 C 95 % 1016,4 hPa 0,0 mm 0,3 km/h (0 Bft) W-SW 247 0,1 C 0,0 km/h (0 Bft)
27.10.2015 03:45 0,7 C 0,6 C 95 % 1016,4 hPa 0,0 mm 0,0 km/h (0 Bft) W-SW 247 -0,0 C 0,0 km/h (0 Bft)
27.10.2015 03:50 0,9 C 0,7 C 95 % 1016,4 hPa 0,0 mm 0,0 km/h (0 Bft) W-SW 247 0,2 C 0,0 km/h (0 Bft)
27.10.2015 03:55 1,2 C 1,1 C 89 % 1016,4 hPa 0,0 mm 0,3 km/h (0 Bft) W 270 -0,4 C 6,0 km/h (2 Bft)
27.10.2015 04:00 0,8 C 0,8 C 95 % 1016,4 hPa 0,0 mm 0,8 km/h (0 Bft) NW 315 0,1 C 0,0 km/h (0 Bft)
27.10.2015 04:05 0,9 C 0,7 C 95 % 1016,4 hPa 0,0 mm 0,8 km/h (0 Bft) NW 315 0,2 C 0,0 km/h (0 Bft)
27.10.2015 04:10 0,6 C 0,5 C 95 % 1016,4 hPa 0,0 mm 0,0 km/h (0 Bft) NW 315 -0,1 C 0,0 km/h (0 Bft)
27.10.2015 04:15 0,5 C 0,4 C 95 % 1016,4 hPa 0,0 mm 0,0 km/h (0 Bft) NW 315 -0,2 C 0,0 km/h (0 Bft)
27.10.2015 04:20 0,8 C 0,5 C 95 % 1016,4 hPa 0,0 mm 0,0 km/h (0 Bft) NW 315 0,1 C 0,0 km/h (0 Bft)
27.10.2015 04:25 0,3 C 0,1 C 95 % 1016,4 hPa 0,0 mm 0,0 km/h (0 Bft) NW 315 -0,4 C 0,0 km/h (0 Bft)
27.10.2015 04:30 0,3 C 0,1 C 95 % 1016,5 hPa 0,0 mm 0,0 km/h (0 Bft) W-NW 292 -0,4 C 0,0 km/h (0 Bft)
27.10.2015 04:35 0,3 C 0,1 C 95 % 1016,5 hPa 0,0 mm 0,0 km/h (0 Bft) W-NW 292 -0,4 C 0,0 km/h (0 Bft)
27.10.2015 04:40 0,3 C 0,1 C 95 % 1016,5 hPa 0,0 mm 0,0 km/h (0 Bft) W-NW 292 -0,4 C 0,0 km/h (0 Bft)
27.10.2015 04:45 0,1 C -0,1 C 95 % 1016,5 hPa 0,0 mm 0,0 km/h (0 Bft) W-NW 292 -0,6 C 0,0 km/h (0 Bft)
27.10.2015 04:50 0,4 C 0,1 C 95 % 1016,8 hPa 0,0 mm 0,0 km/h (0 Bft) W-NW 292 -0,3 C 0,0 km/h (0 Bft)
27.10.2015 04:55 0,4 C 0,1 C 95 % 1016,8 hPa 0,0 mm 0,0 km/h (0 Bft) W-NW 292 -0,3 C 0,0 km/h (0 Bft)
27.10.2015 05:00 0,2 C 0,0 C 95 % 1016,8 hPa 0,0 mm 0,0 km/h (0 Bft) W-NW 292 -0,5 C 0,0 km/h (0 Bft)
27.10.2015 05:05 0,0 C -0,2 C 95 % 1016,8 hPa 0,0 mm 0,0 km/h (0 Bft) W-NW 292 -0,7 C 0,0 km/h (0 Bft)
27.10.2015 05:10 0,0 C -0,2 C 95 % 1016,6 hPa 0,0 mm 0,0 km/h (0 Bft) W 270 -0,7 C 0,0 km/h (0 Bft)
27.10.2015 05:15 -0,2 C -0,4 C 95 % 1016,6 hPa 0,0 mm 0,0 km/h (0 Bft) W-NW 292 -0,9 C 0,0 km/h (0 Bft)
27.10.2015 05:20 -0,2 C -0,4 C 95 % 1016,6 hPa 0,0 mm 0,0 km/h (0 Bft) W-NW 292 -0,9 C 0,0 km/h (0 Bft)
27.10.2015 05:25 -0,5 C -0,6 C 95 % 1016,6 hPa 0,0 mm 0,0 km/h (0 Bft) W-NW 292 -1,2 C 0,0 km/h (0 Bft)
27.10.2015 05:30 -0,4 C -0,6 C 95 % 1016,6 hPa 0,0 mm 0,0 km/h (0 Bft) W-NW 292 -1,1 C 0,0 km/h (0 Bft)
27.10.2015 05:35 -0,1 C -0,4 C 95 % 1016,6 hPa 0,0 mm 0,0 km/h (0 Bft) W-NW 292 -0,8 C 0,0 km/h (0 Bft)
27.10.2015 05:40 0,0 C -0,3 C 95 % 1016,6 hPa 0,0 mm 0,0 km/h (0 Bft) W-NW 292 -0,7 C 0,0 km/h (0 Bft)
27.10.2015 05:45 0,0 C -0,3 C 95 % 1016,6 hPa 0,0 mm 0,0 km/h (0 Bft) W-NW 292 -0,7 C 0,0 km/h (0 Bft)
27.10.2015 05:50 -0,2 C -0,4 C 95 % 1016,6 hPa 0,0 mm 0,0 km/h (0 Bft) NW 315 -0,9 C 0,0 km/h (0 Bft)
27.10.2015 05:55 -0,3 C -0,5 C 95 % 1016,6 hPa 0,0 mm 0,0 km/h (0 Bft) NW 315 -1,0 C 0,0 km/h (0 Bft)
27.10.2015 06:00 -0,1 C -0,5 C 95 % 1016,6 hPa 0,0 mm 0,0 km/h (0 Bft) NW 315 -0,8 C 0,0 km/h (0 Bft)
27.10.2015 06:05 -0,4 C -0,7 C 95 % 1016,6 hPa 0,0 mm 0,0 km/h (0 Bft) NW 315 -1,1 C 0,0 km/h (0 Bft)
27.10.2015 06:10 -0,5 C -0,8 C 95 % 1016,6 hPa 0,0 mm 0,0 km/h (0 Bft) NW 315 -1,2 C 0,0 km/h (0 Bft)
27.10.2015 06:15 -0,6 C -0,8 C 95 % 1016,6 hPa 0,0 mm 0,0 km/h (0 Bft) NW 315 -1,3 C 0,0 km/h (0 Bft)
27.10.2015 06:20 -0,9 C -1,1 C 95 % 1016,6 hPa 0,0 mm 0,0 km/h (0 Bft) NW 315 -1,6 C 0,0 km/h (0 Bft)
27.10.2015 06:25 -0,2 C -0,5 C 95 % 1016,6 hPa 0,0 mm 0,0 km/h (0 Bft) W 270 -0,9 C 0,0 km/h (0 Bft)
27.10.2015 06:30 -0,1 C -0,4 C 95 % 1016,6 hPa 0,0 mm 0,0 km/h (0 Bft) W 270 -0,8 C 0,0 km/h (0 Bft)
27.10.2015 06:35 -0,5 C -0,7 C 95 % 1016,6 hPa 0,0 mm 0,0 km/h (0 Bft) W 270 -1,2 C 0,0 km/h (0 Bft)
27.10.2015 06:40 -0,6 C -0,9 C 95 % 1016,6 hPa 0,0 mm 0,0 km/h (0 Bft) W 270 -1,3 C 0,0 km/h (0 Bft)
27.10.2015 06:45 -0,5 C -0,8 C 95 % 1016,6 hPa 0,0 mm 0,0 km/h (0 Bft) W 270 -1,2 C 0,0 km/h (0 Bft)
27.10.2015 06:50 -0,7 C -1,0 C 95 % 1016,6 hPa 0,0 mm 0,0 km/h (0 Bft) W 270 -1,4 C 0,0 km/h (0 Bft)
27.10.2015 06:55 -0,6 C -0,9 C 95 % 1016,6 hPa 0,0 mm 0,0 km/h (0 Bft) W 270 -1,3 C 0,0 km/h (0 Bft)
27.10.2015 07:00 -0,3 C -0,7 C 95 % 1016,6 hPa 0,0 mm 0,0 km/h (0 Bft) W 270 -1,0 C 0,0 km/h (0 Bft)
27.10.2015 07:05 -0,4 C -0,7 C 95 % 1016,6 hPa 0,0 mm 0,0 km/h (0 Bft) W 270 -1,1 C 0,0 km/h (0 Bft)
27.10.2015 07:10 -0,5 C -0,7 C 95 % 1016,7 hPa 0,0 mm 0,0 km/h (0 Bft) W-SW 247 -1,2 C 0,0 km/h (0 Bft)
27.10.2015 07:15 -0,4 C -0,6 C 95 % 1016,7 hPa 0,0 mm 0,0 km/h (0 Bft) W 270 -1,1 C 0,0 km/h (0 Bft)
27.10.2015 07:20 -0,4 C -0,6 C 95 % 1016,7 hPa 0,0 mm 0,0 km/h (0 Bft) W 270 -1,1 C 0,0 km/h (0 Bft)
27.10.2015 07:25 -0,3 C -0,5 C 95 % 1016,7 hPa 0,0 mm 0,0 km/h (0 Bft) W 270 -1,0 C 0,0 km/h (0 Bft)
27.10.2015 07:30 -0,3 C -0,4 C 89 % 1016,8 hPa 0,0 mm 0,0 km/h (0 Bft) W 270 -1,9 C 0,0 km/h (0 Bft)
27.10.2015 07:35 -0,1 C -0,3 C 95 % 1016,8 hPa 0,0 mm 0,0 km/h (0 Bft) W 270 -0,8 C 0,0 km/h (0 Bft)
27.10.2015 07:37 -0,1 C -0,3 C 95 % 1016,8 hPa 0,0 mm 0,0 km/h (0 Bft) W 270 -0,8 C 0,0 km/h (0 Bft)
27.10.2015 07:40 0,0 C -0,1 C 89 % 1016,8 hPa 0,0 mm 0,0 km/h (0 Bft) W 270 -1,6 C 0,0 km/h (0 Bft)
27.10.2015 07:45 0,1 C 0,0 C 95 % 1016,8 hPa 0,0 mm 0,0 km/h (0 Bft) W 270 -0,6 C 0,0 km/h (0 Bft)
27.10.2015 07:50 0,2 C 0,1 C 96 % 1016,9 hPa 0,0 mm 0,0 km/h (0 Bft) W 270 -0,4 C 0,0 km/h (0 Bft)
27.10.2015 07:55 0,3 C 0,2 C 96 % 1016,9 hPa 0,0 mm 0,0 km/h (0 Bft) W 270 -0,3 C 0,0 km/h (0 Bft)
27.10.2015 08:00 0,5 C 0,3 C 96 % 1016,9 hPa 0,0 mm 0,0 km/h (0 Bft) W 270 -0,1 C 0,0 km/h (0 Bft)
27.10.2015 08:05 0,8 C 0,6 C 96 % 1016,9 hPa 0,0 mm 0,0 km/h (0 Bft) W-SW 247 0,2 C 0,0 km/h (0 Bft)
27.10.2015 08:10 0,7 C 0,6 C 96 % 1017,0 hPa 0,0 mm 0,0 km/h (0 Bft) W-SW 247 0,1 C 0,0 km/h (0 Bft)
27.10.2015 08:15 0,6 C 0,6 C 96 % 1017,0 hPa 0,0 mm 0,0 km/h (0 Bft) W-SW 247 0,0 C 0,0 km/h (0 Bft)
27.10.2015 08:20 1,0 C 1,0 C 89 % 1017,0 hPa 0,0 mm 0,0 km/h (0 Bft) W-SW 247 -0,6 C 0,0 km/h (0 Bft)
27.10.2015 08:25 1,1 C 1,1 C 96 % 1017,0 hPa 0,0 mm 0,0 km/h (0 Bft) W-SW 247 0,5 C 0,0 km/h (0 Bft)
27.10.2015 08:30 1,4 C 1,3 C 96 % 1016,8 hPa 0,0 mm 0,0 km/h (0 Bft) W-SW 247 0,8 C 0,0 km/h (0 Bft)
27.10.2015 08:35 1,8 C 1,8 C 90 % 1016,8 hPa 0,0 mm 0,0 km/h (0 Bft) W-SW 247 0,3 C 0,0 km/h (0 Bft)
27.10.2015 08:40 1,7 C 1,9 C 96 % 1016,8 hPa 0,0 mm 0,0 km/h (0 Bft) W-SW 247 1,1 C 0,0 km/h (0 Bft)
27.10.2015 08:45 1,8 C 2,1 C 96 % 1016,8 hPa 0,0 mm 0,0 km/h (0 Bft) W-SW 247 1,2 C 0,0 km/h (0 Bft)
27.10.2015 08:50 2,1 C 2,1 C 96 % 1017,0 hPa 0,0 mm 0,0 km/h (0 Bft) W-SW 247 1,5 C 0,0 km/h (0 Bft)
27.10.2015 08:55 2,3 C 2,3 C 96 % 1017,0 hPa 0,0 mm 0,0 km/h (0 Bft) W-SW 247 1,7 C 0,0 km/h (0 Bft)
27.10.2015 09:00 2,6 C 2,6 C 96 % 1017,0 hPa 0,0 mm 0,0 km/h (0 Bft) W-SW 247 2,0 C 0,0 km/h (0 Bft)
27.10.2015 09:05 2,8 C 2,9 C 96 % 1017,0 hPa 0,0 mm 0,0 km/h (0 Bft) NW 315 2,2 C 0,0 km/h (0 Bft)
27.10.2015 09:10 2,9 C 3,1 C 96 % 1017,1 hPa 0,0 mm 0,0 km/h (0 Bft) W-NW 292 2,3 C 0,0 km/h (0 Bft)
27.10.2015 09:15 3,5 C 3,5 C 95 % 1017,1 hPa 0,0 mm 0,0 km/h (0 Bft) W-NW 292 2,8 C 0,0 km/h (0 Bft)
27.10.2015 09:20 3,6 C 3,6 C 95 % 1017,1 hPa 0,0 mm 0,0 km/h (0 Bft) W-NW 292 2,9 C 0,0 km/h (0 Bft)
27.10.2015 09:25 3,8 C 3,8 C 95 % 1017,1 hPa 0,0 mm 0,0 km/h (0 Bft) W-NW 292 3,1 C 0,0 km/h (0 Bft)
27.10.2015 09:30 4,0 C 4,0 C 95 % 1017,1 hPa 0,0 mm 0,0 km/h (0 Bft) NW 315 3,3 C 0,0 km/h (0 Bft)
27.10.2015 09:35 4,4 C 4,5 C 95 % 1017,1 hPa 0,0 mm 0,0 km/h (0 Bft) N-NW 337 3,7 C 0,0 km/h (0 Bft)
27.10.2015 09:40 4,6 C 4,7 C 95 % 1017,1 hPa 0,0 mm 0,0 km/h (0 Bft) N-NW 337 3,9 C 0,0 km/h (0 Bft)
27.10.2015 09:45 4,8 C 5,2 C 95 % 1017,1 hPa 0,0 mm 0,0 km/h (0 Bft) N-NW 337 4,1 C 0,0 km/h (0 Bft)
27.10.2015 09:50 4,9 C 6,4 C 95 % 1017,1 hPa 0,0 mm 0,0 km/h (0 Bft) N-NW 337 4,2 C 0,0 km/h (0 Bft)
27.10.2015 09:55 5,2 C 9,5 C 95 % 1017,1 hPa 0,0 mm 0,0 km/h (0 Bft) W 270 4,5 C 0,0 km/h (0 Bft)
27.10.2015 10:00 5,4 C 10,7 C 95 % 1017,1 hPa 0,0 mm 0,0 km/h (0 Bft) W 270 4,7 C 0,0 km/h (0 Bft)
27.10.2015 10:05 5,5 C 10,1 C 95 % 1017,1 hPa 0,0 mm 0,0 km/h (0 Bft) N-NO 22 4,8 C 0,0 km/h (0 Bft)
27.10.2015 10:10 5,8 C 10,0 C 95 % 1017,1 hPa 0,0 mm 0,0 km/h (0 Bft) N-NO 22 5,1 C 0,0 km/h (0 Bft)
27.10.2015 10:15 5,9 C 9,0 C 95 % 1017,1 hPa 0,0 mm 0,0 km/h (0 Bft) O-SO 112 5,2 C 0,0 km/h (0 Bft)
27.10.2015 10:21 5,9 C 8,2 C 95 % 1017,1 hPa 0,0 mm 0,0 km/h (0 Bft) O-SO 112 5,2 C 0,0 km/h (0 Bft)
27.10.2015 10:25 6,1 C 8,7 C 94 % 1017,1 hPa 0,0 mm 0,0 km/h (0 Bft) O 90 5,2 C 0,0 km/h (0 Bft)
27.10.2015 10:30 6,3 C 11,1 C 94 % 1017,1 hPa 0,0 mm 0,3 km/h (0 Bft) O-SO 112 5,4 C 0,0 km/h (0 Bft)
27.10.2015 10:35 6,4 C 13,1 C 94 % 1017,1 hPa 0,0 mm 0,5 km/h (0 Bft) O-SO 112 5,5 C 3,1 km/h (1 Bft)
27.10.2015 10:40 6,5 C 14,2 C 94 % 1017,1 hPa 0,0 mm 0,5 km/h (0 Bft) O-NO 67 5,6 C 0,0 km/h (0 Bft)
27.10.2015 10:45 6,8 C 15,1 C 94 % 1017,1 hPa 0,0 mm 0,3 km/h (0 Bft) O 90 5,9 C 0,0 km/h (0 Bft)
27.10.2015 10:50 6,6 C 15,6 C 94 % 1016,9 hPa 0,0 mm 0,3 km/h (0 Bft) O-NO 67 5,7 C 0,0 km/h (0 Bft)
27.10.2015 10:55 6,9 C 15,5 C 94 % 1016,9 hPa 0,0 mm 1,3 km/h (1 Bft) O-NO 67 6,0 C 4,1 km/h (1 Bft)
27.10.2015 11:00 7,1 C 15,5 C 94 % 1016,9 hPa 0,0 mm 1,8 km/h (1 Bft) O-SO 112 6,2 C 0,0 km/h (0 Bft)
27.10.2015 11:05 6,9 C 15,9 C 94 % 1016,9 hPa 0,0 mm 1,6 km/h (1 Bft) O 90 6,0 C 4,1 km/h (1 Bft)
27.10.2015 11:10 7,2 C 15,7 C 94 % 1017,0 hPa 0,0 mm 2,1 km/h (1 Bft) O-SO 112 6,3 C 3,1 km/h (1 Bft)
27.10.2015 11:15 7,4 C 15,5 C 94 % 1017,0 hPa 0,0 mm 3,4 km/h (1 Bft) O-SO 112 6,5 C 3,1 km/h (1 Bft)
27.10.2015 11:20 7,5 C 15,2 C 94 % 1017,0 hPa 0,0 mm 3,4 km/h (1 Bft) O-NO 67 6,6 C 7,8 km/h (2 Bft)
27.10.2015 11:25 7,9 C 14,4 C 94 % 1017,0 hPa 0,0 mm 3,9 km/h (1 Bft) O-NO 67 7,0 C 8,5 km/h (2 Bft)
27.10.2015 11:30 7,7 C 13,2 C 94 % 1017,4 hPa 0,0 mm 4,9 km/h (1 Bft) N-NW 337 6,8 C 8,5 km/h (2 Bft)
27.10.2015 11:35 7,8 C 12,1 C 94 % 1017,4 hPa 0,0 mm 4,7 km/h (1 Bft) O-NO 67 6,9 C 4,7 km/h (1 Bft)
27.10.2015 11:40 7,8 C 11,6 C 93 % 1017,4 hPa 0,0 mm 4,9 km/h (1 Bft) O-SO 112 6,7 C 7,3 km/h (2 Bft)
27.10.2015 11:45 7,9 C 11,0 C 87 % 1017,4 hPa 0,0 mm 6,0 km/h (2 Bft) O-NO 67 5,9 C 6,7 km/h (2 Bft)
27.10.2015 11:50 7,8 C 11,0 C 87 % 1017,9 hPa 0,0 mm 6,2 km/h (2 Bft) O-NO 67 5,8 C 10,9 km/h (2 Bft)
27.10.2015 11:55 7,7 C 11,4 C 92 % 1017,9 hPa 0,0 mm 6,7 km/h (2 Bft) N-NO 22 6,5 C 5,2 km/h (1 Bft)
27.10.2015 12:00 7,7 C 11,9 C 87 % 1017,9 hPa 0,0 mm 6,7 km/h (2 Bft) O-SO 112 5,7 C 11,7 km/h (2 Bft)
27.10.2015 12:05 7,8 C 13,2 C 91 % 1017,9 hPa 0,0 mm 5,2 km/h (1 Bft) NO 45 6,4 C 4,9 km/h (1 Bft)
27.10.2015 12:10 7,7 C 13,7 C 90 % 1018,4 hPa 0,0 mm 5,2 km/h (1 Bft) O-NO 67 6,2 C 5,7 km/h (1 Bft)
27.10.2015 12:15 7,5 C 13,6 C 90 % 1018,4 hPa 0,0 mm 6,5 km/h (2 Bft) NO 45 6,0 C 8,3 km/h (2 Bft)
27.10.2015 12:20 7,5 C 13,2 C 89 % 1018,4 hPa 0,0 mm 8,0 km/h (2 Bft) S-SW 202 5,8 C 12,9 km/h (3 Bft)
27.10.2015 12:25 7,6 C 13,1 C 89 % 1018,4 hPa 0,0 mm 8,3 km/h (2 Bft) O-NO 67 5,9 C 8,5 km/h (2 Bft)
27.10.2015 12:30 7,6 C 13,2 C 89 % 1018,4 hPa 0,0 mm 8,5 km/h (2 Bft) O-NO 67 5,9 C 15,5 km/h (3 Bft)
27.10.2015 12:35 7,7 C 13,9 C 86 % 1018,4 hPa 0,0 mm 6,0 km/h (2 Bft) O-NO 67 5,5 C 13,2 km/h (3 Bft)
27.10.2015 12:40 7,8 C 13,7 C 86 % 1018,4 hPa 0,0 mm 6,2 km/h (2 Bft) O-NO 67 5,6 C 9,8 km/h (2 Bft)
27.10.2015 12:45 7,9 C 13,7 C 87 % 1018,4 hPa 0,0 mm 6,7 km/h (2 Bft) O-NO 67 5,9 C 6,5 km/h (2 Bft)
27.10.2015 12:50 7,7 C 13,7 C 87 % 1018,3 hPa 0,0 mm 5,2 km/h (1 Bft) N-NO 22 5,7 C 6,0 km/h (2 Bft)
27.10.2015 12:55 7,7 C 14,3 C 85 % 1018,3 hPa 0,0 mm 4,1 km/h (1 Bft) N-NO 22 5,3 C 3,9 km/h (1 Bft)
27.10.2015 13:00 7,9 C 14,5 C 85 % 1018,3 hPa 0,0 mm 4,1 km/h (1 Bft) O-NO 67 5,5 C 4,7 km/h (1 Bft)
27.10.2015 13:05 8,1 C 14,5 C 85 % 1018,3 hPa 0,0 mm 5,2 km/h (1 Bft) O-SO 112 5,7 C 4,9 km/h (1 Bft)
27.10.2015 13:10 8,4 C 14,3 C 85 % 1018,2 hPa 0,0 mm 6,0 km/h (2 Bft) O 90 6,0 C 6,7 km/h (2 Bft)
27.10.2015 13:15 8,8 C 14,3 C 85 % 1018,2 hPa 0,0 mm 6,0 km/h (2 Bft) O-NO 67 6,4 C 3,6 km/h (1 Bft)
27.10.2015 13:20 9,1 C 14,5 C 85 % 1018,2 hPa 0,0 mm 5,4 km/h (1 Bft) O-NO 67 6,7 C 10,4 km/h (2 Bft)
27.10.2015 13:25 9,2 C 14,2 C 84 % 1018,2 hPa 0,0 mm 6,2 km/h (2 Bft) O-NO 67 6,6 C 9,1 km/h (2 Bft)
27.10.2015 13:30 9,1 C 14,0 C 84 % 1018,0 hPa 0,0 mm 7,5 km/h (2 Bft) NO 45 6,5 C 11,4 km/h (2 Bft)
27.10.2015 13:35 9,1 C 13,8 C 84 % 1018,0 hPa 0,0 mm 7,0 km/h (2 Bft) O-NO 67 6,5 C 7,8 km/h (2 Bft)
27.10.2015 13:38 9,1 C 13,8 C 84 % 1018,0 hPa 0,0 mm 7,0 km/h (2 Bft) O-NO 67 6,5 C 7,8 km/h (2 Bft)
27.10.2015 13:40 9,1 C 13,9 C 83 % 1018,0 hPa 0,0 mm 6,0 km/h (2 Bft) O-NO 67 6,4 C 6,2 km/h (2 Bft)
27.10.2015 13:45 9,0 C 13,5 C 83 % 1018,0 hPa 0,0 mm 5,4 km/h (1 Bft) NO 45 6,3 C 4,9 km/h (1 Bft)
27.10.2015 13:50 9,2 C 13,9 C 83 % 1017,9 hPa 0,0 mm 4,1 km/h (1 Bft) O-SO 112 6,5 C 0,0 km/h (0 Bft)
27.10.2015 13:55 9,6 C 14,5 C 83 % 1017,9 hPa 0,0 mm 3,9 km/h (1 Bft) O-NO 67 6,9 C 9,8 km/h (2 Bft)
27.10.2015 14:00 9,4 C 14,3 C 83 % 1017,9 hPa 0,0 mm 4,7 km/h (1 Bft) O-SO 112 6,7 C 2,8 km/h (1 Bft)
27.10.2015 14:05 9,4 C 14,3 C 83 % 1017,9 hPa 0,0 mm 4,4 km/h (1 Bft) O-NO 67 6,7 C 7,0 km/h (2 Bft)
27.10.2015 14:10 9,3 C 14,2 C 83 % 1017,8 hPa 0,0 mm 4,9 km/h (1 Bft) O-NO 67 6,6 C 10,6 km/h (2 Bft)
27.10.2015 14:15 8,9 C 13,5 C 82 % 1017,8 hPa 0,0 mm 6,7 km/h (2 Bft) NO 45 6,0 C 6,5 km/h (2 Bft)
27.10.2015 14:20 8,9 C 13,2 C 82 % 1017,8 hPa 0,0 mm 6,2 km/h (2 Bft) O-NO 67 6,0 C 4,4 km/h (1 Bft)
27.10.2015 14:25 9,1 C 13,2 C 82 % 1017,8 hPa 0,0 mm 5,2 km/h (1 Bft) SO 135 6,2 C 0,0 km/h (0 Bft)
27.10.2015 14:30 8,9 C 13,2 C 82 % 1017,8 hPa 0,0 mm 5,2 km/h (1 Bft) SO 135 6,0 C 0,0 km/h (0 Bft)
27.10.2015 14:35 8,6 C 13,2 C 82 % 1017,8 hPa 0,0 mm 5,2 km/h (1 Bft) SO 135 5,7 C 0,0 km/h (0 Bft)
27.10.2015 14:40 8,5 C 13,2 C 82 % 1017,8 hPa 0,0 mm 0,0 km/h (0 Bft) SO 135 5,6 C 0,0 km/h (0 Bft)
27.10.2015 14:45 8,5 C 13,2 C 82 % 1017,8 hPa 0,0 mm 0,0 km/h (0 Bft) SO 135 5,6 C 0,0 km/h (0 Bft)
27.10.2015 14:50 8,6 C 13,2 C 83 % 1017,3 hPa 0,0 mm 0,0 km/h (0 Bft) SO 135 5,9 C 0,0 km/h (0 Bft)
27.10.2015 14:55 8,3 C 13,2 C 83 % 1017,3 hPa 0,0 mm 0,0 km/h (0 Bft) SO 135 5,6 C 0,0 km/h (0 Bft)
27.10.2015 15:00 8,2 C 13,2 C 83 % 1017,3 hPa 0,0 mm 0,0 km/h (0 Bft) SO 135 5,5 C 0,0 km/h (0 Bft)
27.10.2015 15:05 8,0 C 13,2 C 83 % 1017,3 hPa 0,0 mm 0,0 km/h (0 Bft) SO 135 5,3 C 0,0 km/h (0 Bft)
27.10.2015 15:10 7,8 C 13,2 C 83 % 1017,7 hPa 0,0 mm 0,0 km/h (0 Bft) SO 135 5,1 C 0,0 km/h (0 Bft)
27.10.2015 15:15 7,5 C 13,2 C 83 % 1017,7 hPa 0,0 mm 0,0 km/h (0 Bft) SO 135 4,8 C 0,0 km/h (0 Bft)
27.10.2015 15:20 7,3 C 13,2 C 83 % 1017,7 hPa 0,0 mm 0,0 km/h (0 Bft) SO 135 4,6 C 0,0 km/h (0 Bft)
27.10.2015 15:25 7,0 C 13,2 C 83 % 1017,7 hPa 0,0 mm 0,0 km/h (0 Bft) SO 135 4,3 C 0,0 km/h (0 Bft)
27.10.2015 15:30 6,7 C 13,2 C 84 % 1017,0 hPa 0,0 mm 0,0 km/h (0 Bft) SO 135 4,2 C 0,0 km/h (0 Bft)
27.10.2015 15:35 6,7 C 13,2 C 84 % 1017,0 hPa 0,0 mm 0,0 km/h (0 Bft) SO 135 4,2 C 0,0 km/h (0 Bft)
27.10.2015 15:40 6,6 C 13,2 C 84 % 1017,0 hPa 0,0 mm 0,0 km/h (0 Bft) SO 135 4,1 C 0,0 km/h (0 Bft)
27.10.2015 15:45 6,5 C 13,2 C 84 % 1017,0 hPa 0,0 mm 0,0 km/h (0 Bft) SO 135 4,0 C 0,0 km/h (0 Bft)
27.10.2015 15:50 6,4 C 13,2 C 84 % 1016,7 hPa 0,0 mm 0,0 km/h (0 Bft) SO 135 3,9 C 0,0 km/h (0 Bft)
27.10.2015 15:55 6,2 C 13,2 C 85 % 1016,7 hPa 0,0 mm 0,0 km/h (0 Bft) SO 135 3,9 C 0,0 km/h (0 Bft)
27.10.2015 16:00 6,0 C 13,2 C 85 % 1016,7 hPa 0,0 mm 0,0 km/h (0 Bft) SO 135 3,7 C 0,0 km/h (0 Bft)
27.10.2015 16:05 6,0 C 13,2 C 85 % 1016,7 hPa 0,0 mm 0,0 km/h (0 Bft) SO 135 3,7 C 0,0 km/h (0 Bft)
27.10.2015 16:10 6,0 C 13,2 C 85 % 1017,0 hPa 0,0 mm 0,0 km/h (0 Bft) SO 135 3,7 C 0,0 km/h (0 Bft)
27.10.2015 16:15 6,0 C 13,2 C 85 % 1017,0 hPa 0,0 mm 0,0 km/h (0 Bft) SO 135 3,7 C 0,0 km/h (0 Bft)
27.10.2015 16:20 5,9 C 13,2 C 86 % 1017,0 hPa 0,0 mm 0,0 km/h (0 Bft) SO 135 3,7 C 0,0 km/h (0 Bft)
27.10.2015 16:25 5,8 C 13,2 C 86 % 1017,0 hPa 0,0 mm 0,0 km/h (0 Bft) SO 135 3,6 C 0,0 km/h (0 Bft)
27.10.2015 16:30 5,7 C 13,2 C 86 % 1016,4 hPa 0,0 mm 0,0 km/h (0 Bft) SO 135 3,5 C 0,0 km/h (0 Bft)
27.10.2015 16:35 5,6 C 13,2 C 88 % 1016,4 hPa 0,0 mm 0,0 km/h (0 Bft) SO 135 3,8 C 0,0 km/h (0 Bft)
27.10.2015 16:40 5,5 C 13,2 C 86 % 1016,4 hPa 0,0 mm 0,0 km/h (0 Bft) SO 135 3,3 C 0,0 km/h (0 Bft)
27.10.2015 16:45 5,5 C 13,2 C 86 % 1016,4 hPa 0,0 mm 0,0 km/h (0 Bft) SO 135 3,3 C 0,0 km/h (0 Bft)
27.10.2015 16:50 5,5 C 13,2 C 86 % 1016,2 hPa 0,0 mm 0,0 km/h (0 Bft) SO 135 3,3 C 0,0 km/h (0 Bft)
27.10.2015 16:55 5,3 C 13,2 C 89 % 1016,2 hPa 0,0 mm 0,0 km/h (0 Bft) SO 135 3,6 C 0,0 km/h (0 Bft)
27.10.2015 17:00 5,3 C 13,2 C 89 % 1016,2 hPa 0,0 mm 0,0 km/h (0 Bft) SO 135 3,6 C 0,0 km/h (0 Bft)
27.10.2015 17:05 5,2 C 13,2 C 89 % 1016,2 hPa 0,0 mm 0,0 km/h (0 Bft) SO 135 3,5 C 0,0 km/h (0 Bft)
27.10.2015 17:10 5,1 C 13,2 C 89 % 1016,2 hPa 0,0 mm 0,0 km/h (0 Bft) SO 135 3,4 C 0,0 km/h (0 Bft)
27.10.2015 17:15 5,0 C 13,2 C 87 % 1016,2 hPa 0,0 mm 0,0 km/h (0 Bft) SO 135 3,0 C 0,0 km/h (0 Bft)
27.10.2015 17:20 5,0 C 13,2 C 87 % 1016,2 hPa 0,0 mm 0,0 km/h (0 Bft) SO 135 3,0 C 0,0 km/h (0 Bft)
27.10.2015 17:25 5,0 C 13,2 C 87 % 1016,2 hPa 0,0 mm 0,0 km/h (0 Bft) SO 135 3,0 C 0,0 km/h (0 Bft)
27.10.2015 17:30 4,9 C 13,2 C 87 % 1016,2 hPa 0,0 mm 0,0 km/h (0 Bft) SO 135 2,9 C 0,0 km/h (0 Bft)
27.10.2015 17:35 5,0 C 13,2 C 89 % 1016,2 hPa 0,0 mm 0,0 km/h (0 Bft) SO 135 3,3 C 0,0 km/h (0 Bft)
27.10.2015 17:40 4,9 C 13,2 C 87 % 1016,2 hPa 0,0 mm 0,0 km/h (0 Bft) SO 135 2,9 C 0,0 km/h (0 Bft)
27.10.2015 17:45 4,9 C 13,2 C 87 % 1016,2 hPa 0,0 mm 0,0 km/h (0 Bft) SO 135 2,9 C 0,0 km/h (0 Bft)
27.10.2015 17:50 4,8 C 13,2 C 90 % 1016,3 hPa 0,0 mm 0,0 km/h (0 Bft) SO 135 3,3 C 0,0 km/h (0 Bft)
27.10.2015 17:55 4,6 C 13,2 C 87 % 1016,3 hPa 0,0 mm 0,0 km/h (0 Bft) SO 135 2,6 C 0,0 km/h (0 Bft)
27.10.2015 18:00 4,6 C 13,2 C 87 % 1016,3 hPa 0,0 mm 0,0 km/h (0 Bft) SO 135 2,6 C 0,0 km/h (0 Bft)
27.10.2015 18:05 4,5 C 13,2 C 87 % 1016,3 hPa 0,0 mm 0,0 km/h (0 Bft) SO 135 2,5 C 0,0 km/h (0 Bft)
27.10.2015 18:10 4,5 C 13,2 C 90 % 1016,1 hPa 0,0 mm 0,0 km/h (0 Bft) SO 135 3,0 C 0,0 km/h (0 Bft)
27.10.2015 18:15 4,4 C 13,2 C 87 % 1016,1 hPa 0,0 mm 0,0 km/h (0 Bft) SO 135 2,4 C 0,0 km/h (0 Bft)
27.10.2015 18:20 4,3 C 13,2 C 91 % 1016,1 hPa 0,0 mm 0,0 km/h (0 Bft) SO 135 3,0 C 0,0 km/h (0 Bft)
27.10.2015 18:25 4,1 C 13,2 C 91 % 1016,1 hPa 0,0 mm 0,0 km/h (0 Bft) SO 135 2,8 C 0,0 km/h (0 Bft)
27.10.2015 18:30 4,0 C 13,2 C 91 % 1016,2 hPa 0,0 mm 0,0 km/h (0 Bft) SO 135 2,7 C 0,0 km/h (0 Bft)
27.10.2015 18:35 3,7 C 13,2 C 91 % 1016,2 hPa 0,0 mm 0,0 km/h (0 Bft) SO 135 2,4 C 0,0 km/h (0 Bft)
27.10.2015 18:40 3,2 C 13,2 C 90 % 1016,2 hPa 0,0 mm 0,0 km/h (0 Bft) SO 135 1,7 C 0,0 km/h (0 Bft)
27.10.2015 18:45 3,2 C 13,2 C 90 % 1016,2 hPa 0,0 mm 0,0 km/h (0 Bft) SO 135 1,7 C 0,0 km/h (0 Bft)
27.10.2015 18:50 3,2 C 13,2 C 90 % 1016,2 hPa 0,0 mm 0,0 km/h (0 Bft) SO 135 1,7 C 0,0 km/h (0 Bft)
27.10.2015 18:55 3,2 C 13,2 C 90 % 1016,2 hPa 0,0 mm 0,0 km/h (0 Bft) SO 135 1,7 C 0,0 km/h (0 Bft)
27.10.2015 19:00 3,2 C 13,2 C 91 % 1016,2 hPa 0,0 mm 0,0 km/h (0 Bft) SO 135 1,9 C 0,0 km/h (0 Bft)
27.10.2015 19:05 3,0 C 13,2 C 91 % 1016,2 hPa 0,0 mm 0,0 km/h (0 Bft) SO 135 1,7 C 0,0 km/h (0 Bft)
27.10.2015 19:10 2,8 C 13,2 C 92 % 1016,2 hPa 0,0 mm 0,0 km/h (0 Bft) SO 135 1,6 C 0,0 km/h (0 Bft)
27.10.2015 19:15 2,7 C 13,2 C 92 % 1016,2 hPa 0,0 mm 0,0 km/h (0 Bft) SO 135 1,5 C 0,0 km/h (0 Bft)
27.10.2015 19:20 2,7 C 13,2 C 88 % 1016,2 hPa 0,0 mm 0,0 km/h (0 Bft) SO 135 0,9 C 0,0 km/h (0 Bft)
27.10.2015 19:25 2,6 C 13,2 C 88 % 1016,2 hPa 0,0 mm 0,0 km/h (0 Bft) SO 135 0,8 C 0,0 km/h (0 Bft)
27.10.2015 19:30 2,7 C 13,2 C 89 % 1016,0 hPa 0,0 mm 0,0 km/h (0 Bft) SO 135 1,1 C 0,0 km/h (0 Bft)
27.10.2015 19:35 3,0 C 13,2 C 91 % 1016,0 hPa 0,0 mm 0,0 km/h (0 Bft) SO 135 1,7 C 0,0 km/h (0 Bft)
27.10.2015 19:39 3,0 C 13,2 C 91 % 1016,0 hPa 0,0 mm 0,0 km/h (0 Bft) SO 135 1,7 C 0,0 km/h (0 Bft)
27.10.2015 19:40 3,0 C 13,2 C 88 % 1016,0 hPa 0,0 mm 0,0 km/h (0 Bft) SO 135 1,2 C 0,0 km/h (0 Bft)
27.10.2015 19:45 3,0 C 13,2 C 88 % 1016,0 hPa 0,0 mm 0,0 km/h (0 Bft) SO 135 1,2 C 0,0 km/h (0 Bft)
27.10.2015 19:50 3,1 C 13,2 C 92 % 1015,4 hPa 0,0 mm 0,0 km/h (0 Bft) SO 135 1,9 C 0,0 km/h (0 Bft)
27.10.2015 19:55 2,9 C 13,2 C 93 % 1015,4 hPa 0,0 mm 0,0 km/h (0 Bft) SO 135 1,9 C 0,0 km/h (0 Bft)
27.10.2015 20:00 2,9 C 13,2 C 93 % 1015,4 hPa 0,0 mm 0,0 km/h (0 Bft) SO 135 1,9 C 0,0 km/h (0 Bft)
27.10.2015 20:05 2,7 C 13,2 C 89 % 1015,4 hPa 0,0 mm 0,0 km/h (0 Bft) SO 135 1,1 C 0,0 km/h (0 Bft)
27.10.2015 20:10 2,7 C 13,2 C 89 % 1015,6 hPa 0,0 mm 0,0 km/h (0 Bft) SO 135 1,1 C 0,0 km/h (0 Bft)
27.10.2015 20:15 2,7 C 13,2 C 89 % 1015,6 hPa 0,0 mm 0,0 km/h (0 Bft) SO 135 1,1 C 0,0 km/h (0 Bft)
27.10.2015 20:20 2,7 C 13,2 C 89 % 1015,6 hPa 0,0 mm 0,0 km/h (0 Bft) SO 135 1,1 C 0,0 km/h (0 Bft)
27.10.2015 20:25 2,7 C 13,2 C 93 % 1015,6 hPa 0,0 mm 0,0 km/h (0 Bft) SO 135 1,7 C 0,0 km/h (0 Bft)
27.10.2015 20:30 2,6 C 13,2 C 93 % 1015,8 hPa 0,0 mm 0,0 km/h (0 Bft) SO 135 1,6 C 0,0 km/h (0 Bft)
27.10.2015 20:35 2,4 C 13,2 C 93 % 1015,8 hPa 0,0 mm 0,0 km/h (0 Bft) SO 135 1,4 C 0,0 km/h (0 Bft)
27.10.2015 20:40 2,3 C 13,2 C 93 % 1015,8 hPa 0,0 mm 0,0 km/h (0 Bft) SO 135 1,3 C 0,0 km/h (0 Bft)
27.10.2015 20:45 2,3 C 13,2 C 93 % 1015,8 hPa 0,0 mm 0,0 km/h (0 Bft) SO 135 1,3 C 0,0 km/h (0 Bft)
27.10.2015 20:50 2,2 C 13,2 C 93 % 1015,6 hPa 0,0 mm 0,0 km/h (0 Bft) SO 135 1,2 C 0,0 km/h (0 Bft)
27.10.2015 20:55 2,0 C 13,2 C 93 % 1015,6 hPa 0,0 mm 0,0 km/h (0 Bft) SO 135 1,0 C 0,0 km/h (0 Bft)
27.10.2015 21:00 1,8 C 13,2 C 93 % 1015,6 hPa 0,0 mm 0,0 km/h (0 Bft) SO 135 0,8 C 0,0 km/h (0 Bft)
27.10.2015 21:05 1,6 C 13,2 C 93 % 1015,6 hPa 0,0 mm 0,0 km/h (0 Bft) SO 135 0,6 C 0,0 km/h (0 Bft)
27.10.2015 21:10 1,4 C 13,2 C 93 % 1015,5 hPa 0,0 mm 0,0 km/h (0 Bft) SO 135 0,4 C 0,0 km/h (0 Bft)
27.10.2015 21:15 1,5 C 13,2 C 93 % 1015,5 hPa 0,0 mm 0,0 km/h (0 Bft) SO 135 0,5 C 0,0 km/h (0 Bft)
27.10.2015 21:20 1,5 C 13,2 C 93 % 1015,5 hPa 0,0 mm 0,0 km/h (0 Bft) SO 135 0,5 C 0,0 km/h (0 Bft)
27.10.2015 21:25 1,5 C 13,2 C 93 % 1015,5 hPa 0,0 mm 0,0 km/h (0 Bft) SO 135 0,5 C 0,0 km/h (0 Bft)
27.10.2015 21:30 1,5 C 13,2 C 93 % 1015,5 hPa 0,0 mm 0,0 km/h (0 Bft) SO 135 0,5 C 0,0 km/h (0 Bft)
27.10.2015 21:35 1,5 C 13,2 C 93 % 1015,5 hPa 0,0 mm 0,0 km/h (0 Bft) SO 135 0,5 C 0,0 km/h (0 Bft)
27.10.2015 21:40 1,3 C 13,2 C 93 % 1015,5 hPa 0,0 mm 0,0 km/h (0 Bft) SO 135 0,3 C 0,0 km/h (0 Bft)
27.10.2015 21:45 1,2 C 13,2 C 93 % 1015,5 hPa 0,0 mm 0,0 km/h (0 Bft) SO 135 0,2 C 0,0 km/h (0 Bft)
27.10.2015 21:50 1,3 C 13,2 C 93 % 1015,3 hPa 0,0 mm 0,0 km/h (0 Bft) SO 135 0,3 C 0,0 km/h (0 Bft)
27.10.2015 21:55 1,0 C 13,2 C 93 % 1015,3 hPa 0,0 mm 0,0 km/h (0 Bft) SO 135 -0,0 C 0,0 km/h (0 Bft)
27.10.2015 22:00 1,0 C 13,2 C 93 % 1015,3 hPa 0,0 mm 0,0 km/h (0 Bft) SO 135 -0,0 C 0,0 km/h (0 Bft)
27.10.2015 22:05 1,0 C 13,2 C 93 % 1015,3 hPa 0,0 mm 0,0 km/h (0 Bft) SO 135 -0,0 C 0,0 km/h (0 Bft)
27.10.2015 22:10 0,9 C 13,2 C 93 % 1015,4 hPa 0,0 mm 0,0 km/h (0 Bft) SO 135 -0,1 C 0,0 km/h (0 Bft)
27.10.2015 22:15 0,9 C 13,2 C 93 % 1015,4 hPa 0,0 mm 0,0 km/h (0 Bft) SO 135 -0,1 C 0,0 km/h (0 Bft)
27.10.2015 22:20 0,7 C 13,2 C 93 % 1015,4 hPa 0,0 mm 0,0 km/h (0 Bft) SO 135 -0,3 C 0,0 km/h (0 Bft)
27.10.2015 22:25 0,8 C 13,2 C 93 % 1015,4 hPa 0,0 mm 0,0 km/h (0 Bft) SO 135 -0,2 C 0,0 km/h (0 Bft)
27.10.2015 22:30 0,6 C 13,2 C 93 % 1015,3 hPa 0,0 mm 0,0 km/h (0 Bft) SO 135 -0,4 C 0,0 km/h (0 Bft)
27.10.2015 22:35 0,9 C 13,2 C 93 % 1015,3 hPa 0,0 mm 0,0 km/h (0 Bft) SO 135 -0,1 C 0,0 km/h (0 Bft)
27.10.2015 22:40 0,7 C 13,2 C 93 % 1015,3 hPa 0,0 mm 0,0 km/h (0 Bft) SO 135 -0,3 C 0,0 km/h (0 Bft)
27.10.2015 22:45 0,8 C 13,2 C 94 % 1015,3 hPa 0,0 mm 0,0 km/h (0 Bft) SO 135 -0,1 C 0,0 km/h (0 Bft)
27.10.2015 22:50 0,7 C 13,2 C 94 % 1015,0 hPa 0,0 mm 0,0 km/h (0 Bft) SO 135 -0,2 C 0,0 km/h (0 Bft)
27.10.2015 22:55 0,5 C 13,2 C 94 % 1015,0 hPa 0,0 mm 0,0 km/h (0 Bft) SO 135 -0,4 C 0,0 km/h (0 Bft)
27.10.2015 23:00 0,9 C 13,2 C 94 % 1015,0 hPa 0,0 mm 0,0 km/h (0 Bft) SO 135 0,0 C 0,0 km/h (0 Bft)
27.10.2015 23:05 1,0 C 13,2 C 94 % 1015,0 hPa 0,0 mm 0,0 km/h (0 Bft) SO 135 0,1 C 0,0 km/h (0 Bft)
27.10.2015 23:10 0,8 C 0,5 C 94 % 1014,9 hPa 0,0 mm 0,3 km/h (0 Bft) SW 225 -0,1 C 0,0 km/h (0 Bft)
27.10.2015 23:15 0,3 C 0,1 C 94 % 1014,9 hPa 0,0 mm 0,0 km/h (0 Bft) W-SW 247 -0,5 C 0,0 km/h (0 Bft)
27.10.2015 23:20 0,3 C 0,0 C 94 % 1014,9 hPa 0,0 mm 0,3 km/h (0 Bft) W-SW 247 -0,5 C 3,1 km/h (1 Bft)
27.10.2015 23:25 0,5 C 0,2 C 94 % 1014,9 hPa 0,0 mm 0,5 km/h (0 Bft) W-SW 247 -0,4 C 0,0 km/h (0 Bft)
27.10.2015 23:30 0,2 C -0,1 C 94 % 1014,8 hPa 0,0 mm 0,5 km/h (0 Bft) W-SW 247 -0,6 C 0,0 km/h (0 Bft)
27.10.2015 23:35 0,0 C -0,3 C 94 % 1014,8 hPa 0,0 mm 0,0 km/h (0 Bft) W-SW 247 -0,8 C 0,0 km/h (0 Bft)
27.10.2015 23:40 0,1 C -0,2 C 94 % 1014,8 hPa 0,0 mm 0,0 km/h (0 Bft) SW 225 -0,7 C 0,0 km/h (0 Bft)
27.10.2015 23:45 0,0 C -0,3 C 94 % 1014,8 hPa 0,0 mm 0,0 km/h (0 Bft) W-SW 247 -0,8 C 0,0 km/h (0 Bft)
27.10.2015 23:50 0,2 C -0,2 C 94 % 1014,5 hPa 0,0 mm 0,0 km/h (0 Bft) SO 135 -0,6 C 0,0 km/h (0 Bft)
27.10.2015 23:55 0,0 C -0,4 C 94 % 1014,5 hPa 0,0 mm 0,0 km/h (0 Bft) S-SW 202 -0,8 C 0,0 km/h (0 Bft)
_ Min-Zeit 06:20 06:20 14:45 23:55 - 23:55 - - 07:30 23:55
Minimum _ -0,9 C -1,1 C 82 % 1014,5 hPa - 0,0 km/h (0 Bft) - - -1,9 C 0,0 km/h (0 Bft)
_ Max-Zeit 13:55 11:05 09:10 12:45 23:55 12:30 - - 11:25 12:30
Maximum _ 9,6 C 15,9 C 96 % 1018,4 hPa 0,0 mm 8,5 km/h
O-NO (2 Bft)
- - 7,0 C 15,5 km/h
O-NO (3 Bft)
Durchschnitt _ 3,2 C 7,6 C 92 % 1016,7 hPa #0,0 mm 0,8 km/h (0 Bft) O-NO - 2,0 C 1,1 km/h (0 Bft)